QPF
0.07 0.10 0.10 0.08 0.08 0.07 0.10 0.14 0.17 0.23 0.26 0.29 0.34 0.35 0.31 0.29 0.25 0.20 0.15 0.12 0.13 0.10 0.07 0.03 0.02 0.01 0.01 0.00 0.00 0.00 0.00 0.00 0.00 0.00 0.00 0.01 0.00 0.00 0.00 0.00 0.00 0.01 0.01
0.06 0.08 0.11 0.10 0.09 0.08 0.09 0.13 0.16 0.23 0.26 0.29 0.32 0.34 0.31 0.26 0.26 0.25 0.22 0.15 0.12 0.11 0.09 0.06 0.04 0.02 0.02 0.02 0.01 0.00 0.00 0.00 0.01 0.01 0.01 0.00 0.00 0.00 0.00 0.01 0.01 0.01 0.00
0.11 0.10 0.11 0.11 0.12 0.12 0.12 0.13 0.16 0.22 0.28 0.31 0.36 0.36 0.40 0.35 0.28 0.27 0.27 0.20 0.13 0.09 0.07 0.06 0.06 0.04 0.02 0.03 0.02 0.02 0.01 0.02 0.02 0.02 0.02 0.01 0.00 0.00 0.00 0.00 0.00 0.00 0.00
0.18 0.18 0.16 0.13 0.17 0.20 0.16 0.15 0.18 0.21 0.28 0.35 0.39 0.36 0.36 0.34 0.24 0.20 0.24 0.24 0.16 0.10 0.08 0.05 0.05 0.05 0.04 0.03 0.03 0.03 0.04 0.04 0.04 0.04 0.03 0.02 0.01 0.01 0.01 0.00 0.00 0.00 0.00
0.19 0.20 0.20 0.19 0.21 0.23 0.21 0.18 0.21 0.25 0.29 0.35 0.39 0.38 0.34 0.30 0.24 0.20 0.20 0.24 0.20 0.13 0.08 0.06 0.05 0.05 0.04 0.03 0.03 0.04 0.04 0.04 0.04 0.04 0.04 0.04 0.03 0.01 0.01 0.01 0.00 0.00 0.01
0.26 0.24 0.25 0.25 0.24 0.26 0.25 0.24 0.24 0.25 0.29 0.31 0.36 0.41 0.38 0.33 0.27 0.22 0.19 0.20 0.20 0.15 0.11 0.08 0.06 0.05 0.04 0.04 0.03 0.03 0.03 0.04 0.05 0.05 0.05 0.04 0.04 0.03 0.02 0.02 0.01 0.01 0.01
0.33 0.31 0.29 0.27 0.25 0.26 0.24 0.26 0.26 0.25 0.28 0.31 0.32 0.36 0.35 0.32 0.27 0.22 0.18 0.18 0.18 0.16 0.13 0.10 0.08 0.06 0.05 0.05 0.05 0.04 0.04 0.04 0.04 0.04 0.05 0.04 0.04 0.04 0.04 0.04 0.03 0.03 0.02
0.38 0.35 0.31 0.35 0.34 0.30 0.28 0.29 0.29 0.27 0.27 0.30 0.33 0.33 0.30 0.29 0.28 0.24 0.18 0.16 0.15 0.14 0.13 0.12 0.10 0.09 0.08 0.08 0.07 0.07 0.06 0.07 0.07 0.07 0.07 0.06 0.05 0.05 0.05 0.05 0.06 0.05 0.03
0.36 0.36 0.37 0.37 0.36 0.33 0.33 0.34 0.34 0.31 0.26 0.25 0.28 0.31 0.27 0.25 0.24 0.22 0.18 0.15 0.14 0.13 0.13 0.13 0.12 0.11 0.10 0.09 0.09 0.08 0.08 0.08 0.08 0.08 0.08 0.07 0.06 0.05 0.05 0.05 0.05 0.05 0.04
0.27 0.29 0.29 0.29 0.27 0.27 0.30 0.34 0.35 0.34 0.27 0.24 0.25 0.28 0.26 0.22 0.20 0.18 0.18 0.15 0.13 0.11 0.11 0.11 0.12 0.12 0.11 0.09 0.09 0.09 0.09 0.09 0.09 0.10 0.10 0.08 0.07 0.06 0.05 0.05 0.04 0.04 0.03
0.19 0.22 0.21 0.19 0.19 0.20 0.23 0.28 0.32 0.33 0.26 0.25 0.27 0.28 0.28 0.25 0.23 0.20 0.18 0.16 0.13 0.11 0.11 0.10 0.10 0.10 0.10 0.10 0.09 0.09 0.10 0.09 0.09 0.09 0.09 0.08 0.08 0.07 0.05 0.04 0.03 0.02 0.02
0.16 0.15 0.13 0.11 0.11 0.11 0.13 0.16 0.19 0.23 0.24 0.23 0.26 0.24 0.24 0.26 0.26 0.24 0.21 0.19 0.15 0.11 0.09 0.09 0.08 0.08 0.08 0.09 0.09 0.09 0.09 0.10 0.10 0.09 0.09 0.07 0.06 0.06 0.05 0.04 0.03 0.03 0.02
0.09 0.07 0.07 0.08 0.07 0.07 0.07 0.09 0.13 0.16 0.18 0.19 0.19 0.19 0.18 0.19 0.20 0.22 0.21 0.19 0.18 0.15 0.10 0.08 0.07 0.08 0.09 0.09 0.09 0.09 0.10 0.10 0.10 0.10 0.10 0.09 0.08 0.07 0.05 0.05 0.04 0.03 0.03
0.04 0.04 0.04 0.05 0.05 0.05 0.05 0.06 0.07 0.08 0.08 0.08 0.08 0.09 0.10 0.10 0.11 0.12 0.14 0.15 0.16 0.16 0.14 0.10 0.08 0.08 0.08 0.08 0.08 0.08 0.08 0.08 0.08 0.08 0.07 0.07 0.07 0.06 0.06 0.06 0.05 0.04 0.04
0.02 0.02 0.03 0.03 0.03 0.02 0.03 0.03 0.03 0.02 0.02 0.03 0.03 0.03 0.04 0.05 0.05 0.06 0.06 0.07 0.08 0.11 0.12 0.12 0.11 0.09 0.08 0.06 0.07 0.07 0.07 0.07 0.06 0.06 0.05 0.04 0.04 0.04 0.04 0.04 0.03 0.03 0.03
0.00 0.00 0.01 0.01 0.01 0.01 0.01 0.01 0.01 0.01 0.01 0.01 0.01 0.01 0.01 0.02 0.03 0.03 0.04 0.04 0.04 0.04 0.07 0.09 0.10 0.09 0.08 0.08 0.07 0.07 0.07 0.07 0.06 0.05 0.04 0.03 0.03 0.03 0.03 0.03 0.03 0.03 0.02
0.00 0.00 0.00 0.00 0.00 0.00 0.00 0.00 0.00 0.00 0.00 0.00 0.00 0.00 0.00 0.01 0.02 0.02 0.03 0.03 0.03 0.03 0.04 0.05 0.06 0.06 0.06 0.07 0.07 0.06 0.05 0.04 0.04 0.03 0.03 0.03 0.02 0.02 0.02 0.02 0.02 0.03 0.03
0.00 0.00 0.00 0.00 0.00 0.00 0.00 0.00 0.00 0.00 0.00 0.00 0.00 0.00 0.00 0.00 0.01 0.01 0.02 0.03 0.03 0.03 0.04 0.04 0.05 0.05 0.05 0.05 0.04 0.05 0.04 0.03 0.03 0.02 0.01 0.01 0.01 0.01 0.01 0.01 0.01 0.01 0.02
0.00 0.00 0.00 0.00 0.00 0.00 0.00 0.00 0.00 0.00 0.00 0.00 0.00 0.00 0.00 0.00 0.00 0.01 0.02 0.02 0.02 0.03 0.05 0.04 0.05 0.05 0.05 0.05 0.04 0.04 0.03 0.03 0.03 0.03 0.02 0.01 0.01 0.01 0.02 0.02 0.01 0.01 0.01
0.00 0.00 0.00 0.00 0.00 0.00 0.00 0.00 0.00 0.00 0.00 0.00 0.00 0.00 0.00 0.00 0.00 0.00 0.01 0.02 0.01 0.01 0.03 0.04 0.04 0.04 0.05 0.05 0.04 0.04 0.03 0.03 0.03 0.03 0.03 0.02 0.02 0.02 0.03 0.02 0.02 0.02 0.01
0.00 0.00 0.00 0.00 0.00 0.00 0.00 0.00 0.00 0.00 0.00 0.00 0.00 0.00 0.00 0.00 0.00 0.00 0.00 0.00 0.01 0.01 0.01 0.01 0.02 0.03 0.03 0.04 0.04 0.04 0.03 0.03 0.03 0.03 0.02 0.02 0.04 0.04 0.05 0.05 0.03 0.03 0.03
0.00 0.00 0.00 0.00 0.00 0.00 0.00 0.00 0.00 0.00 0.00 0.00 0.00 0.00 0.00 0.00 0.00 0.00 0.00 0.00 0.01 0.01 0.01 0.01 0.01 0.02 0.02 0.03 0.03 0.03 0.04 0.05 0.05 0.04 0.03 0.03 0.04 0.05 0.06 0.07 0.06 0.06 0.05
0.00 0.00 0.00 0.00 0.00 0.00 0.00 0.00 0.00 0.00 0.00 0.00 0.00 0.00 0.00 0.00 0.00 0.00 0.00 0.01 0.01 0.01 0.01 0.01 0.02 0.02 0.02 0.03 0.03 0.04 0.05 0.07 0.07 0.06 0.05 0.05 0.06 0.07 0.08 0.08 0.07 0.07 0.06
0.00 0.00 0.00 0.00 0.00 0.00 0.00 0.00 0.00 0.00 0.00 0.00 0.00 0.00 0.00 0.01 0.01 0.01 0.01 0.01 0.01 0.01 0.01 0.01 0.02 0.02 0.02 0.03 0.03 0.04 0.05 0.06 0.08 0.08 0.08 0.08 0.08 0.08 0.08 0.08 0.08 0.07 0.05
0.00 0.00 0.00 0.00 0.00 0.00 0.00 0.00 0.00 0.00 0.00 0.00 0.00 0.00 0.01 0.01 0.01 0.01 0.01 0.01 0.02 0.02 0.02 0.02 0.02 0.02 0.03 0.03 0.04 0.06 0.06 0.08 0.09 0.10 0.10 0.10 0.10 0.10 0.08 0.07 0.06 0.06 0.05
0.00 0.00 0.00 0.00 0.00 0.00 0.00 0.00 0.00 0.00 0.00 0.00 0.00 0.01 0.01 0.01 0.01 0.01 0.01 0.02 0.02 0.02 0.02 0.03 0.03 0.03 0.03 0.04 0.05 0.06 0.07 0.09 0.12 0.14 0.12 0.10 0.09 0.09 0.08 0.07 0.07 0.07 0.06
MSLP
1007.72 1007.79 1007.82 1007.82 1007.81 1007.80 1007.83 1007.94 1008.14 1008.45 1008.83 1009.27 1009.73 1010.17 1010.56 1010.87 1011.10 1011.27 1011.42 1011.58 1011.79 1012.08 1012.47 1012.96 1013.53 1014.14 1014.76 1015.35 1015.89 1016.35 1016.74 1017.04 1017.29 1017.49 1017.66 1017.81 1017.95 1018.07 1018.18 1018.29 1018.39 1018.49 1018.59
1006.96 1007.07 1007.16 1007.22 1007.26 1007.31 1007.39 1007.53 1007.76 1008.08 1008.47 1008.92 1009.38 1009.81 1010.19 1010.48 1010.70 1010.86 1011.00 1011.14 1011.34 1011.63 1012.02 1012.51 1013.08 1013.70 1014.33 1014.94 1015.49 1015.98 1016.40 1016.75 1017.05 1017.30 1017.53 1017.73 1017.92 1018.09 1018.24 1018.38 1018.50 1018.63 1018.75
1006.26 1006.38 1006.49 1006.59 1006.68 1006.77 1006.89 1007.06 1007.31 1007.64 1008.03 1008.47 1008.91 1009.33 1009.70 1010.00 1010.23 1010.40 1010.55 1010.72 1010.94 1011.24 1011.64 1012.13 1012.70 1013.31 1013.93 1014.53 1015.09 1015.59 1016.02 1016.40 1016.73 1017.03 1017.31 1017.56 1017.80 1018.02 1018.21 1018.39 1018.55 1018.70 1018.85
1005.70 1005.79 1005.89 1006.00 1006.10 1006.22 1006.36 1006.56 1006.81 1007.14 1007.52 1007.93 1008.36 1008.77 1009.13 1009.44 1009.69 1009.90 1010.10 1010.32 1010.59 1010.92 1011.34 1011.84 1012.39 1012.98 1013.58 1014.15 1014.68 1015.16 1015.60 1015.98 1016.33 1016.66 1016.97 1017.27 1017.55 1017.81 1018.05 1018.27 1018.47 1018.66 1018.84
1005.38 1005.39 1005.45 1005.53 1005.62 1005.74 1005.89 1006.09 1006.34 1006.64 1006.99 1007.38 1007.78 1008.17 1008.53 1008.86 1009.15 1009.42 1009.69 1009.97 1010.30 1010.68 1011.12 1011.63 1012.16 1012.72 1013.27 1013.80 1014.29 1014.73 1015.14 1015.51 1015.85 1016.19 1016.52 1016.84 1017.14 1017.44 1017.72 1017.97 1018.22 1018.45 1018.67
1005.36 1005.27 1005.25 1005.27 1005.33 1005.43 1005.57 1005.75 1005.97 1006.24 1006.56 1006.90 1007.27 1007.64 1008.01 1008.36 1008.70 1009.04 1009.38 1009.73 1010.12 1010.55 1011.01 1011.51 1012.02 1012.53 1013.02 1013.48 1013.91 1014.30 1014.65 1014.99 1015.31 1015.62 1015.94 1016.26 1016.58 1016.89 1017.19 1017.49 1017.78 1018.06 1018.34
1005.67 1005.48 1005.36 1005.31 1005.32 1005.38 1005.49 1005.63 1005.82 1006.05 1006.32 1006.63 1006.96 1007.31 1007.68 1008.06 1008.44 1008.83 1009.24 1009.66 1010.10 1010.55 1011.02 1011.50 1011.96 1012.41 1012.83 1013.21 1013.56 1013.87 1014.16 1014.44 1014.71 1014.98 1015.27 1015.56 1015.87 1016.18 1016.51 1016.84 1017.18 1017.53 1017.87
1006.29 1006.00 1005.80 1005.67 1005.63 1005.65 1005.71 1005.83 1005.98 1006.17 1006.39 1006.66 1006.95 1007.29 1007.65 1008.04 1008.45 1008.89 1009.33 1009.79 1010.25 1010.71 1011.15 1011.58 1011.98 1012.35 1012.68 1012.98 1013.24 1013.47 1013.68 1013.88 1014.09 1014.30 1014.53 1014.78 1015.06 1015.37 1015.71 1016.08 1016.47 1016.88 1017.31
1007.17 1006.81 1006.54 1006.36 1006.27 1006.25 1006.29 1006.37 1006.49 1006.65 1006.84 1007.06 1007.33 1007.64 1007.98 1008.37 1008.79 1009.23 1009.69 1010.14 1010.58 1011.01 1011.40 1011.75 1012.07 1012.34 1012.57 1012.77 1012.94 1013.08 1013.21 1013.33 1013.46 1013.61 1013.78 1013.98 1014.23 1014.52 1014.86 1015.26 1015.71 1016.20 1016.71
1008.22 1007.83 1007.53 1007.33 1007.22 1007.18 1007.20 1007.27 1007.37 1007.50 1007.66 1007.85 1008.09 1008.37 1008.69 1009.05 1009.45 1009.86 1010.28 1010.68 1011.07 1011.41 1011.71 1011.97 1012.17 1012.34 1012.47 1012.57 1012.65 1012.71 1012.76 1012.82 1012.88 1012.95 1013.06 1013.21 1013.41 1013.68 1014.03 1014.46 1014.96 1015.51 1016.11
1009.36 1008.99 1008.71 1008.52 1008.41 1008.38 1008.40 1008.46 1008.56 1008.67 1008.81 1008.98 1009.18 1009.43 1009.71 1010.02 1010.36 1010.71 1011.04 1011.36 1011.64 1011.87 1012.04 1012.18 1012.26 1012.32 1012.35 1012.36 1012.36 1012.35 1012.34 1012.34 1012.34 1012.37 1012.42 1012.52 1012.69 1012.94 1013.28 1013.73 1014.27 1014.88 1015.56
1010.52 1010.22 1009.98 1009.83 1009.76 1009.74 1009.78 1009.85 1009.94 1010.05 1010.17 1010.32 1010.49 1010.68 1010.91 1011.15 1011.41 1011.65 1011.88 1012.07 1012.21 1012.30 1012.35 1012.34 1012.31 1012.25 1012.19 1012.12 1012.06 1012.01 1011.96 1011.92 1011.89 1011.87 1011.89 1011.95 1012.09 1012.32 1012.66 1013.11 1013.67 1014.33 1015.05
1011.66 1011.44 1011.28 1011.18 1011.15 1011.16 1011.22 1011.30 1011.39 1011.49 1011.60 1011.72 1011.85 1011.99 1012.15 1012.31 1012.46 1012.59 1012.69 1012.74 1012.73 1012.68 1012.58 1012.44 1012.29 1012.13 1011.99 1011.87 1011.77 1011.68 1011.62 1011.56 1011.51 1011.48 1011.48 1011.52 1011.64 1011.85 1012.17 1012.62 1013.18 1013.85 1014.59
1012.75 1012.62 1012.54 1012.50 1012.50 1012.54 1012.61 1012.69 1012.78 1012.87 1012.96 1013.04 1013.12 1013.21 1013.29 1013.36 1013.41 1013.42 1013.39 1013.30 1013.15 1012.96 1012.73 1012.47 1012.22 1011.98 1011.78 1011.61 1011.49 1011.39 1011.32 1011.26 1011.22 1011.19 1011.18 1011.22 1011.33 1011.52 1011.83 1012.25 1012.80 1013.44 1014.16
1013.78 1013.74 1013.72 1013.72 1013.75 1013.80 1013.86 1013.94 1014.01 1014.07 1014.12 1014.17 1014.21 1014.23 1014.24 1014.23 1014.18 1014.09 1013.94 1013.73 1013.47 1013.16 1012.82 1012.47 1012.14 1011.84 1011.59 1011.39 1011.24 1011.14 1011.07 1011.03 1010.99 1010.97 1010.97 1011.01 1011.12 1011.30 1011.59 1011.99 1012.50 1013.10 1013.77
1014.74 1014.76 1014.78 1014.80 1014.84 1014.88 1014.92 1014.97 1015.01 1015.03 1015.05 1015.05 1015.04 1015.01 1014.96 1014.88 1014.76 1014.58 1014.35 1014.06 1013.71 1013.32 1012.90 1012.48 1012.09 1011.74 1011.45 1011.22 1011.06 1010.94 1010.87 1010.83 1010.80 1010.79 1010.80 1010.85 1010.96 1011.14 1011.42 1011.79 1012.26 1012.81 1013.42
1015.62 1015.67 1015.70 1015.73 1015.75 1015.76 1015.77 1015.77 1015.77 1015.75 1015.72 1015.68 1015.63 1015.56 1015.46 1015.33 1015.16 1014.93 1014.65 1014.31 1013.91 1013.47 1013.01 1012.55 1012.11 1011.72 1011.39 1011.13 1010.93 1010.79 1010.70 1010.64 1010.61 1010.60 1010.62 1010.68 1010.80 1010.98 1011.25 1011.60 1012.04 1012.54 1013.09
1016.38 1016.45 1016.48 1016.49 1016.48 1016.46 1016.43 1016.38 1016.33 1016.27 1016.20 1016.12 1016.02 1015.92 1015.79 1015.64 1015.44 1015.19 1014.89 1014.53 1014.12 1013.66 1013.18 1012.70 1012.23 1011.81 1011.43 1011.12 1010.87 1010.68 1010.54 1010.44 1010.38 1010.35 1010.37 1010.43 1010.55 1010.75 1011.02 1011.37 1011.79 1012.27 1012.79
1017.01 1017.09 1017.11 1017.11 1017.07 1017.02 1016.95 1016.86 1016.76 1016.66 1016.55 1016.43 1016.31 1016.17 1016.03 1015.86 1015.65 1015.41 1015.11 1014.76 1014.35 1013.90 1013.42 1012.93 1012.44 1011.97 1011.55 1011.17 1010.85 1010.58 1010.37 1010.20 1010.09 1010.02 1010.01 1010.06 1010.19 1010.39 1010.68 1011.05 1011.48 1011.96 1012.48
1017.53 1017.60 1017.63 1017.62 1017.57 1017.49 1017.39 1017.28 1017.14 1017.00 1016.86 1016.70 1016.55 1016.40 1016.23 1016.05 1015.84 1015.60 1015.32 1014.99 1014.60 1014.17 1013.69 1013.20 1012.69 1012.19 1011.71 1011.26 1010.85 1010.49 1010.18 1009.92 1009.72 1009.59 1009.54 1009.56 1009.68 1009.89 1010.21 1010.60 1011.07 1011.58 1012.13
1017.94 1018.03 1018.07 1018.06 1018.01 1017.93 1017.82 1017.69 1017.53 1017.36 1017.18 1017.00 1016.81 1016.63 1016.44 1016.24 1016.03 1015.79 1015.51 1015.19 1014.83 1014.41 1013.96 1013.46 1012.94 1012.40 1011.87 1011.35 1010.85 1010.39 1009.98 1009.61 1009.32 1009.10 1008.98 1008.96 1009.05 1009.26 1009.59 1010.01 1010.53 1011.09 1011.70
1018.28 1018.40 1018.46 1018.48 1018.45 1018.38 1018.27 1018.13 1017.96 1017.76 1017.55 1017.33 1017.10 1016.88 1016.65 1016.42 1016.19 1015.93 1015.65 1015.34 1014.99 1014.59 1014.14 1013.65 1013.13 1012.57 1012.00 1011.43 1010.85 1010.30 1009.78 1009.32 1008.92 1008.60 1008.40 1008.31 1008.35 1008.54 1008.86 1009.31 1009.86 1010.49 1011.17
1018.60 1018.75 1018.84 1018.89 1018.89 1018.84 1018.74 1018.60 1018.42 1018.20 1017.95 1017.68 1017.41 1017.13 1016.85 1016.57 1016.29 1016.01 1015.71 1015.39 1015.03 1014.64 1014.21 1013.73 1013.22 1012.66 1012.08 1011.47 1010.85 1010.23 1009.63 1009.08 1008.58 1008.16 1007.86 1007.68 1007.66 1007.78 1008.08 1008.52 1009.09 1009.77 1010.51
1018.92 1019.10 1019.22 1019.30 1019.33 1019.30 1019.21 1019.07 1018.87 1018.62 1018.34 1018.02 1017.69 1017.34 1017.00 1016.66 1016.32 1015.99 1015.65 1015.31 1014.94 1014.55 1014.13 1013.68 1013.18 1012.65 1012.08 1011.47 1010.84 1010.20 1009.55 1008.93 1008.35 1007.84 1007.44 1007.16 1007.04 1007.09 1007.31 1007.71 1008.27 1008.96 1009.75
1019.26 1019.45 1019.60 1019.69 1019.73 1019.71 1019.63 1019.48 1019.26 1018.98 1018.66 1018.29 1017.89 1017.49 1017.07 1016.66 1016.26 1015.87 1015.48 1015.10 1014.71 1014.32 1013.91 1013.48 1013.02 1012.53 1012.00 1011.43 1010.83 1010.20 1009.55 1008.89 1008.26 1007.68 1007.18 1006.80 1006.56 1006.50 1006.63 1006.95 1007.46 1008.12 1008.91
1019.60 1019.79 1019.93 1020.02 1020.06 1020.03 1019.93 1019.77 1019.53 1019.22 1018.85 1018.44 1017.99 1017.53 1017.05 1016.57 1016.11 1015.65 1015.21 1014.78 1014.37 1013.96 1013.56 1013.15 1012.74 1012.30 1011.84 1011.34 1010.80 1010.22 1009.59 1008.95 1008.29 1007.66 1007.09 1006.60 1006.25 1006.07 1006.08 1006.29 1006.70 1007.30 1008.05
Thickness
5559 5565 5571 5577 5584 5591 5597 5603 5609 5614 5619 5625 5630 5635 5640 5645 5648 5652 5656 5658 5660 5661 5662 5663 5661 5661 5661 5661 5661 5659 5657 5656 5656 5654 5652 5653 5656 5656 5657 5657 5657 5655 5653
5551 5558 5564 5570 5576 5582 5588 5594 5601 5608 5614 5620 5627 5632 5636 5640 5644 5647 5651 5653 5655 5655 5657 5658 5657 5657 5656 5655 5655 5654 5651 5650 5650 5647 5643 5641 5643 5647 5649 5649 5648 5647 5646
5548 5554 5559 5564 5568 5574 5581 5588 5595 5602 5610 5616 5620 5625 5629 5632 5636 5639 5643 5647 5649 5650 5652 5652 5652 5651 5651 5650 5650 5650 5647 5644 5643 5644 5641 5635 5634 5636 5639 5640 5640 5639 5638
5547 5552 5556 5560 5564 5570 5576 5583 5590 5596 5603 5609 5615 5619 5624 5629 5634 5637 5639 5641 5643 5644 5646 5647 5646 5645 5644 5644 5644 5644 5642 5640 5637 5636 5637 5637 5636 5630 5628 5630 5630 5630 5629
5544 5549 5554 5559 5563 5568 5574 5579 5585 5593 5599 5605 5611 5615 5621 5626 5630 5632 5633 5634 5636 5638 5640 5640 5640 5639 5638 5638 5637 5637 5636 5636 5634 5632 5630 5629 5628 5628 5625 5622 5621 5621 5621
5543 5547 5553 5557 5562 5566 5571 5577 5583 5589 5595 5601 5607 5613 5618 5621 5624 5625 5627 5629 5630 5631 5633 5634 5634 5633 5633 5632 5632 5632 5632 5632 5630 5629 5628 5626 5624 5622 5620 5617 5615 5613 5612
5541 5545 5550 5555 5560 5564 5570 5576 5581 5586 5591 5597 5602 5608 5613 5618 5620 5622 5623 5624 5625 5626 5627 5628 5627 5627 5627 5626 5626 5626 5626 5626 5624 5623 5623 5623 5622 5621 5617 5614 5609 5606 5604
5539 5543 5546 5551 5556 5562 5568 5574 5578 5583 5587 5592 5598 5603 5608 5613 5615 5617 5619 5620 5621 5621 5622 5622 5622 5621 5621 5620 5620 5620 5619 5619 5618 5617 5616 5615 5614 5614 5612 5610 5604 5598 5595
5537 5540 5544 5549 5553 5558 5563 5569 5575 5580 5585 5589 5594 5598 5603 5606 5609 5611 5612 5614 5615 5615 5615 5615 5614 5614 5614 5613 5614 5613 5612 5612 5611 5610 5609 5607 5606 5606 5605 5603 5601 5595 5589
5534 5537 5541 5545 5550 5554 5559 5564 5570 5575 5580 5585 5589 5592 5595 5598 5601 5603 5604 5606 5607 5608 5607 5606 5606 5606 5606 5606 5606 5604 5604 5603 5603 5603 5601 5599 5598 5596 5595 5594 5592 5589 5586
5530 5533 5536 5541 5545 5549 5554 5559 5564 5570 5574 5578 5582 5585 5587 5591 5594 5596 5597 5599 5600 5600 5600 5599 5599 5599 5598 5598 5597 5596 5595 5594 5594 5593 5593 5591 5589 5587 5585 5583 5582 5579 5576
5526 5529 5532 5536 5540 5544 5548 5552 5557 5561 5566 5571 5574 5577 5580 5583 5586 5588 5589 5591 5592 5592 5593 5592 5592 5591 5590 5589 5589 5587 5587 5586 5585 5585 5583 5582 5579 5577 5576 5573 5571 5568 5565
5523 5525 5528 5530 5532 5535 5539 5543 5548 5552 5557 5561 5565 5568 5571 5574 5576 5578 5580 5582 5583 5584 5584 5583 5583 5582 5581 5580 5579 5578 5578 5576 5576 5575 5574 5573 5569 5567 5565 5563 5560 5557 5554
5518 5520 5521 5523 5526 5529 5532 5536 5540 5544 5549 5552 5555 5558 5559 5562 5565 5567 5570 5571 5573 5573 5573 5572 5572 5571 5570 5570 5568 5567 5566 5565 5564 5564 5564 5562 5559 5557 5554 5552 5549 5546 5542
5514 5514 5515 5516 5519 5523 5526 5529 5533 5536 5540 5543 5545 5546 5548 5551 5553 5556 5558 5559 5560 5560 5561 5560 5559 5559 5559 5557 5556 5555 5553 5552 5551 5551 5551 5551 5549 5546 5543 5540 5537 5534 5530
5509 5510 5511 5512 5513 5515 5519 5522 5525 5527 5531 5533 5534 5536 5538 5540 5542 5543 5545 5547 5547 5547 5547 5547 5546 5546 5545 5544 5543 5542 5540 5539 5538 5537 5536 5535 5533 5531 5530 5528 5525 5523 5520
5505 5505 5505 5506 5507 5509 5512 5514 5516 5519 5522 5523 5524 5526 5528 5529 5530 5532 5532 5533 5532 5532 5532 5532 5531 5530 5530 5529 5528 5527 5525 5524 5522 5521 5519 5518 5516 5515 5513 5513 5511 5510 5509
5500 5500 5500 5501 5502 5503 5505 5507 5509 5511 5512 5513 5514 5514 5516 5517 5518 5518 5518 5517 5518 5517 5516 5515 5515 5514 5513 5512 5511 5510 5508 5506 5505 5504 5502 5501 5500 5498 5497 5495 5494 5493 5494
5498 5496 5496 5496 5497 5497 5498 5500 5501 5502 5502 5502 5502 5503 5503 5504 5504 5504 5504 5503 5502 5501 5500 5499 5498 5496 5495 5493 5492 5491 5488 5487 5485 5485 5484 5483 5482 5483 5481 5479 5477 5476 5477
5493 5492 5491 5491 5490 5490 5490 5491 5490 5490 5489 5489 5489 5490 5490 5489 5488 5487 5486 5486 5485 5483 5482 5480 5478 5476 5474 5474 5472 5470 5468 5467 5466 5465 5465 5465 5464 5465 5464 5462 5462 5461 5461
5489 5487 5486 5484 5482 5482 5481 5480 5478 5477 5476 5477 5476 5475 5474 5473 5472 5471 5469 5468 5467 5465 5463 5460 5458 5455 5453 5452 5451 5448 5446 5446 5446 5447 5447 5447 5447 5448 5448 5448 5448 5449 5447
5484 5482 5478 5476 5475 5474 5472 5470 5468 5466 5465 5464 5463 5461 5459 5456 5455 5452 5450 5447 5445 5442 5440 5438 5436 5434 5431 5430 5429 5427 5425 5425 5425 5427 5428 5428 5429 5430 5431 5433 5434 5434 5433
5477 5474 5471 5468 5466 5464 5462 5460 5458 5456 5454 5451 5448 5445 5442 5439 5435 5432 5429 5426 5422 5419 5417 5415 5413 5412 5409 5407 5406 5405 5405 5405 5404 5407 5408 5410 5412 5413 5415 5417 5419 5420 5419
5470 5467 5463 5459 5456 5454 5452 5449 5447 5444 5440 5437 5433 5429 5425 5421 5417 5412 5407 5403 5399 5396 5394 5392 5391 5389 5386 5384 5383 5383 5383 5384 5384 5386 5389 5391 5394 5396 5399 5402 5404 5405 5406
5462 5458 5454 5450 5447 5444 5441 5438 5434 5431 5427 5422 5418 5413 5408 5402 5397 5392 5385 5381 5377 5373 5371 5370 5367 5365 5366 5364 5363 5363 5364 5364 5365 5367 5370 5372 5376 5379 5382 5385 5388 5390 5393
5455 5450 5446 5442 5438 5434 5430 5427 5423 5418 5412 5407 5401 5395 5388 5383 5377 5372 5368 5363 5358 5356 5352 5349 5347 5346 5346 5346 5345 5345 5347 5348 5349 5350 5354 5358 5361 5364 5368 5372 5375 5378 5381